Year,Month,Day,Hour,Minute,Value (Times are PST for temperature in C)
2005,08,26,00,00,17.30
2005,08,26,00,01,17.20
2005,08,26,00,02,17.20
2005,08,26,00,03,17.20
2005,08,26,00,04,17.10
2005,08,26,00,05,17.10
2005,08,26,00,06,17.00
2005,08,26,00,07,17.00
2005,08,26,00,08,17.00
2005,08,26,00,09,16.90
2005,08,26,00,10,16.80
2005,08,26,00,11,16.80
2005,08,26,00,12,16.80
2005,08,26,00,13,16.70
2005,08,26,00,14,16.70
2005,08,26,00,15,16.70
2005,08,26,00,16,16.70
2005,08,26,00,17,16.70
2005,08,26,00,18,16.70
2005,08,26,00,19,16.60
2005,08,26,00,20,16.60
2005,08,26,00,21,16.50
2005,08,26,00,22,16.40
2005,08,26,00,23,16.40
2005,08,26,00,24,16.40
2005,08,26,00,25,16.40
2005,08,26,00,26,16.30
2005,08,26,00,27,16.30
2005,08,26,00,28,16.30
2005,08,26,00,29,16.30
2005,08,26,00,30,16.20
2005,08,26,00,31,16.20
2005,08,26,00,32,16.20
2005,08,26,00,33,16.10
2005,08,26,00,34,16.10
2005,08,26,00,35,16.10
2005,08,26,00,36,16.00
2005,08,26,00,37,15.90
2005,08,26,00,38,15.90
2005,08,26,00,39,15.80
2005,08,26,00,40,15.80
2005,08,26,00,41,15.80
2005,08,26,00,42,15.80
2005,08,26,00,43,15.80
2005,08,26,00,44,15.80
2005,08,26,00,45,15.80
2005,08,26,00,46,15.80
2005,08,26,00,47,15.70
2005,08,26,00,48,15.70
2005,08,26,00,49,15.70
2005,08,26,00,50,15.70
2005,08,26,00,51,15.70
2005,08,26,00,52,15.70
2005,08,26,00,53,15.80
2005,08,26,00,54,15.80
2005,08,26,00,55,15.80
2005,08,26,00,56,15.80
2005,08,26,00,57,15.80
2005,08,26,00,58,15.80
2005,08,26,00,59,15.80
2005,08,26,01,00,15.80
2005,08,26,01,01,15.80
2005,08,26,01,02,15.80
2005,08,26,01,03,15.80
2005,08,26,01,04,15.80
2005,08,26,01,05,15.80
2005,08,26,01,06,15.80
2005,08,26,01,07,15.80
2005,08,26,01,08,15.80
2005,08,26,01,09,15.80
2005,08,26,01,10,15.80
2005,08,26,01,11,15.80
2005,08,26,01,12,15.80
2005,08,26,01,13,15.80
2005,08,26,01,14,15.80
2005,08,26,01,15,15.80
2005,08,26,01,16,15.80
2005,08,26,01,17,15.80
2005,08,26,01,18,15.80
2005,08,26,01,19,15.90
2005,08,26,01,20,15.90
2005,08,26,01,21,16.10
2005,08,26,01,22,16.10
2005,08,26,01,23,16.10
2005,08,26,01,24,16.10
2005,08,26,01,25,16.10
2005,08,26,01,26,16.20
2005,08,26,01,27,16.20
2005,08,26,01,28,16.20
2005,08,26,01,29,16.20
2005,08,26,01,30,16.20
2005,08,26,01,31,16.20
2005,08,26,01,32,16.20
2005,08,26,01,33,16.20
2005,08,26,01,34,16.20
2005,08,26,01,35,16.20
2005,08,26,01,36,16.20
2005,08,26,01,37,16.20
2005,08,26,01,38,16.20
2005,08,26,01,39,16.20
2005,08,26,01,40,16.20
2005,08,26,01,41,16.20
2005,08,26,01,42,16.20
2005,08,26,01,43,16.20
2005,08,26,01,44,16.20
2005,08,26,01,45,16.20
2005,08,26,01,46,16.20
2005,08,26,01,47,16.20
2005,08,26,01,48,16.20
2005,08,26,01,49,16.20
2005,08,26,01,50,16.20
2005,08,26,01,51,16.20
2005,08,26,01,52,16.20
2005,08,26,01,53,16.20
2005,08,26,01,54,16.20
2005,08,26,01,55,16.30
2005,08,26,01,56,16.30
2005,08,26,01,57,16.30
2005,08,26,01,58,16.30
2005,08,26,01,59,16.30
2005,08,26,02,00,16.30
2005,08,26,02,01,16.30
2005,08,26,02,02,16.30
2005,08,26,02,03,16.30
2005,08,26,02,04,16.20
2005,08,26,02,05,16.20
2005,08,26,02,06,16.10
2005,08,26,02,07,16.10
2005,08,26,02,08,16.10
2005,08,26,02,09,16.10
2005,08,26,02,10,16.00
2005,08,26,02,11,15.90
2005,08,26,02,12,15.90
2005,08,26,02,13,15.90
2005,08,26,02,14,15.90
2005,08,26,02,15,15.90
2005,08,26,02,16,15.90
2005,08,26,02,17,15.90
2005,08,26,02,18,15.90
2005,08,26,02,19,16.00
2005,08,26,02,20,16.10
2005,08,26,02,21,16.10
2005,08,26,02,22,16.10
2005,08,26,02,23,16.20
2005,08,26,02,24,16.20
2005,08,26,02,25,16.30
2005,08,26,02,26,16.40
2005,08,26,02,27,16.40
2005,08,26,02,28,16.40
2005,08,26,02,29,16.40
2005,08,26,02,30,16.40
2005,08,26,02,31,16.40
2005,08,26,02,32,16.40
2005,08,26,02,33,16.50
2005,08,26,02,34,16.50
2005,08,26,02,35,16.60
2005,08,26,02,36,16.50
2005,08,26,02,37,16.40
2005,08,26,02,38,16.40
2005,08,26,02,39,16.40
2005,08,26,02,40,16.40
2005,08,26,02,41,16.40
2005,08,26,02,42,16.40
2005,08,26,02,43,16.40
2005,08,26,02,44,16.30
2005,08,26,02,45,16.30
2005,08,26,02,46,16.30
2005,08,26,02,47,16.30
2005,08,26,02,48,16.30
2005,08,26,02,49,16.20
2005,08,26,02,50,16.20
2005,08,26,02,51,16.10
2005,08,26,02,52,16.10
2005,08,26,02,53,16.10
2005,08,26,02,54,16.10
2005,08,26,02,55,16.10
2005,08,26,02,56,16.10
2005,08,26,02,57,16.20
2005,08,26,02,58,16.30
2005,08,26,02,59,16.30
2005,08,26,03,00,16.30
2005,08,26,03,01,16.50
2005,08,26,03,02,16.60
2005,08,26,03,03,16.70
2005,08,26,03,04,16.80
2005,08,26,03,05,16.80
2005,08,26,03,06,16.90
2005,08,26,03,07,16.90
2005,08,26,03,08,16.90
2005,08,26,03,09,16.90
2005,08,26,03,10,16.80
2005,08,26,03,11,16.70
2005,08,26,03,12,16.60
2005,08,26,03,13,16.40
2005,08,26,03,14,16.30
2005,08,26,03,15,16.10
2005,08,26,03,16,16.10
2005,08,26,03,17,16.00
2005,08,26,03,18,16.00
2005,08,26,03,19,16.10
2005,08,26,03,20,16.10
2005,08,26,03,21,15.90
2005,08,26,03,22,15.90
2005,08,26,03,23,15.80
2005,08,26,03,24,15.80
2005,08,26,03,25,15.70
2005,08,26,03,26,15.60
2005,08,26,03,27,15.60
2005,08,26,03,28,15.50
2005,08,26,03,29,15.50
2005,08,26,03,30,15.40
2005,08,26,03,31,15.30
2005,08,26,03,32,15.30
2005,08,26,03,33,15.10
2005,08,26,03,34,15.00
2005,08,26,03,35,15.00
2005,08,26,03,36,14.70
2005,08,26,03,37,14.60
2005,08,26,03,38,14.60
2005,08,26,03,39,14.60
2005,08,26,03,40,14.60
2005,08,26,03,41,14.60
2005,08,26,03,42,14.50
2005,08,26,03,43,14.50
2005,08,26,03,44,14.50
2005,08,26,03,45,14.50
2005,08,26,03,46,14.40
2005,08,26,03,47,14.40
2005,08,26,03,48,14.30
2005,08,26,03,49,14.30
2005,08,26,03,50,14.20
2005,08,26,03,51,14.20
2005,08,26,03,52,14.20
2005,08,26,03,53,14.10
2005,08,26,03,54,14.10
2005,08,26,03,55,14.00
2005,08,26,03,56,14.00
2005,08,26,03,57,14.00
2005,08,26,03,58,13.90
2005,08,26,03,59,13.90
2005,08,26,04,00,13.80
2005,08,26,04,01,13.80
2005,08,26,04,02,13.70
2005,08,26,04,03,13.70
2005,08,26,04,04,13.70
2005,08,26,04,05,13.60
2005,08,26,04,06,13.60
2005,08,26,04,07,13.60
2005,08,26,04,08,13.50
2005,08,26,04,09,13.50
2005,08,26,04,10,13.50
2005,08,26,04,11,13.40
2005,08,26,04,12,13.40
2005,08,26,04,13,13.40
2005,08,26,04,14,13.30
2005,08,26,04,15,13.30
2005,08,26,04,16,13.30
2005,08,26,04,17,13.30
2005,08,26,04,18,13.20
2005,08,26,04,19,13.10
2005,08,26,04,20,13.10
2005,08,26,04,21,13.20
2005,08,26,04,22,13.20
2005,08,26,04,23,13.20
2005,08,26,04,24,13.30
2005,08,26,04,25,13.30
2005,08,26,04,26,13.30
2005,08,26,04,27,13.30
2005,08,26,04,28,13.30
2005,08,26,04,29,13.30
2005,08,26,04,30,13.30
2005,08,26,04,31,13.30
2005,08,26,04,32,13.30
2005,08,26,04,33,13.30
2005,08,26,04,34,13.30
2005,08,26,04,35,13.30
2005,08,26,04,36,13.30
2005,08,26,04,37,13.30
2005,08,26,04,38,13.30
2005,08,26,04,39,13.30
2005,08,26,04,40,13.30
2005,08,26,04,41,13.40
2005,08,26,04,42,13.40
2005,08,26,04,43,13.40
2005,08,26,04,44,13.40
2005,08,26,04,45,13.30
2005,08,26,04,46,13.30
2005,08,26,04,47,13.30
2005,08,26,04,48,13.30
2005,08,26,04,49,13.30
2005,08,26,04,50,13.30
2005,08,26,04,51,13.20
2005,08,26,04,52,13.20
2005,08,26,04,53,13.20
2005,08,26,04,54,13.20
2005,08,26,04,55,13.10
2005,08,26,04,56,13.10
2005,08,26,04,57,13.10
2005,08,26,04,58,13.10
2005,08,26,04,59,13.10
2005,08,26,05,00,13.10
2005,08,26,05,01,13.20
2005,08,26,05,02,13.20
2005,08,26,05,03,13.20
2005,08,26,05,04,13.20
2005,08,26,05,05,13.20
2005,08,26,05,06,13.30
2005,08,26,05,07,13.30
2005,08,26,05,08,13.30
2005,08,26,05,09,13.30
2005,08,26,05,10,13.30
2005,08,26,05,11,13.30
2005,08,26,05,12,13.30
2005,08,26,05,13,13.30
2005,08,26,05,14,13.30
2005,08,26,05,15,13.30
2005,08,26,05,16,13.30
2005,08,26,05,17,13.30
2005,08,26,05,18,13.30
2005,08,26,05,19,13.30
2005,08,26,05,20,13.40
2005,08,26,05,21,13.40
2005,08,26,05,22,13.40
2005,08,26,05,23,13.40
2005,08,26,05,24,13.50
2005,08,26,05,25,13.50
2005,08,26,05,26,13.50
2005,08,26,05,27,13.60
2005,08,26,05,28,13.60
2005,08,26,05,29,13.60
2005,08,26,05,30,13.70
2005,08,26,05,31,13.70
2005,08,26,05,32,13.70
2005,08,26,05,33,13.70
2005,08,26,05,34,13.80
2005,08,26,05,35,13.80
2005,08,26,05,36,13.80
2005,08,26,05,37,13.80
2005,08,26,05,38,13.80
2005,08,26,05,39,13.80
2005,08,26,05,40,13.80
2005,08,26,05,41,13.80
2005,08,26,05,42,13.80
2005,08,26,05,43,13.80
2005,08,26,05,44,13.80
2005,08,26,05,45,13.80
2005,08,26,05,46,13.80
2005,08,26,05,47,13.70
2005,08,26,05,48,13.70
2005,08,26,05,49,13.70
2005,08,26,05,50,13.70
2005,08,26,05,51,13.70
2005,08,26,05,52,13.70
2005,08,26,05,53,13.70
2005,08,26,05,54,13.70
2005,08,26,05,55,13.70
2005,08,26,05,56,13.70
2005,08,26,05,57,13.60
2005,08,26,05,58,13.60
2005,08,26,05,59,13.60
2005,08,26,06,00,13.60
2005,08,26,06,01,13.60
2005,08,26,06,02,13.50
2005,08,26,06,03,13.50
2005,08,26,06,04,13.50
2005,08,26,06,05,13.40
2005,08,26,06,06,13.40
2005,08,26,06,07,13.40
2005,08,26,06,08,13.30
2005,08,26,06,09,13.30
2005,08,26,06,10,13.30
2005,08,26,06,11,13.30
2005,08,26,06,12,13.30
2005,08,26,06,13,13.30
2005,08,26,06,14,13.30
2005,08,26,06,15,13.30
2005,08,26,06,16,13.30
2005,08,26,06,17,13.30
2005,08,26,06,18,13.30
2005,08,26,06,19,13.30
2005,08,26,06,20,13.30
2005,08,26,06,21,13.30
2005,08,26,06,22,13.30
2005,08,26,06,23,13.30
2005,08,26,06,24,13.30
2005,08,26,06,25,13.30
2005,08,26,06,26,13.30
2005,08,26,06,27,13.30
2005,08,26,06,28,13.20
2005,08,26,06,29,13.20
2005,08,26,06,30,13.30
2005,08,26,06,31,13.30
2005,08,26,06,32,13.30
2005,08,26,06,33,13.30
2005,08,26,06,34,13.40
2005,08,26,06,35,13.40
2005,08,26,06,36,13.40
2005,08,26,06,37,13.40
2005,08,26,06,38,13.40
2005,08,26,06,39,13.40
2005,08,26,06,40,13.40
2005,08,26,06,41,13.40
2005,08,26,06,42,13.40
2005,08,26,06,43,13.40
2005,08,26,06,44,13.40
2005,08,26,06,45,13.40
2005,08,26,06,46,13.40
2005,08,26,06,47,13.40
2005,08,26,06,48,13.40
2005,08,26,06,49,13.40
2005,08,26,06,50,13.30
2005,08,26,06,51,13.30
2005,08,26,06,52,13.30
2005,08,26,06,53,13.30
2005,08,26,06,54,13.30
2005,08,26,06,55,13.30
2005,08,26,06,56,13.30
2005,08,26,06,57,13.20
2005,08,26,06,58,13.20
2005,08,26,06,59,13.20
2005,08,26,07,00,13.20
2005,08,26,07,01,13.20
2005,08,26,07,02,13.10
2005,08,26,07,03,13.10
2005,08,26,07,04,13.10
2005,08,26,07,05,13.10
2005,08,26,07,06,13.10
2005,08,26,07,07,13.10
2005,08,26,07,08,13.10
2005,08,26,07,09,13.00
2005,08,26,07,10,13.00
2005,08,26,07,11,13.00
2005,08,26,07,12,13.00
2005,08,26,07,13,13.00
2005,08,26,07,14,13.00
2005,08,26,07,15,12.90
2005,08,26,07,16,12.90
2005,08,26,07,17,12.90
2005,08,26,07,18,12.90
2005,08,26,07,19,13.00
2005,08,26,07,20,13.00
2005,08,26,07,21,13.00
2005,08,26,07,22,13.10
2005,08,26,07,23,13.20
2005,08,26,07,24,13.30
2005,08,26,07,25,13.30
2005,08,26,07,26,13.40
2005,08,26,07,27,13.50
2005,08,26,07,28,13.50
2005,08,26,07,29,13.60
2005,08,26,07,30,13.60
2005,08,26,07,31,13.70
2005,08,26,07,32,13.70
2005,08,26,07,33,13.70
2005,08,26,07,34,13.70
2005,08,26,07,35,13.70
2005,08,26,07,36,13.70
2005,08,26,07,37,13.70
2005,08,26,07,38,13.70
2005,08,26,07,39,13.70
2005,08,26,07,40,13.70
2005,08,26,07,41,13.70
2005,08,26,07,42,13.70
2005,08,26,07,43,13.70
2005,08,26,07,44,13.80
2005,08,26,07,45,13.80
2005,08,26,07,46,13.80
2005,08,26,07,47,13.90
2005,08,26,07,48,13.90
2005,08,26,07,49,14.00
2005,08,26,07,50,14.00
2005,08,26,07,51,14.00
2005,08,26,07,52,14.00
2005,08,26,07,53,14.00
2005,08,26,07,54,14.10
2005,08,26,07,55,14.10
2005,08,26,07,56,14.10
2005,08,26,07,57,14.10
2005,08,26,07,58,14.20
2005,08,26,07,59,14.20
2005,08,26,08,00,14.20
2005,08,26,08,01,14.30
2005,08,26,08,02,14.30
2005,08,26,08,03,14.30
2005,08,26,08,04,14.40
2005,08,26,08,05,14.40
2005,08,26,08,06,14.50
2005,08,26,08,07,14.50
2005,08,26,08,08,14.50
2005,08,26,08,09,14.50
2005,08,26,08,10,14.70
2005,08,26,08,11,14.80
2005,08,26,08,12,14.70
2005,08,26,08,13,14.70
2005,08,26,08,14,14.70
2005,08,26,08,15,14.70
2005,08,26,08,16,14.60
2005,08,26,08,17,14.60
2005,08,26,08,18,14.70
2005,08,26,08,19,14.70
2005,08,26,08,20,14.70
2005,08,26,08,21,14.80
2005,08,26,08,22,14.80
2005,08,26,08,23,14.80
2005,08,26,08,24,14.90
2005,08,26,08,25,15.00
2005,08,26,08,26,15.00
2005,08,26,08,27,15.10
2005,08,26,08,28,15.20
2005,08,26,08,29,15.20
2005,08,26,08,30,15.30
2005,08,26,08,31,15.30
2005,08,26,08,32,15.30
2005,08,26,08,33,15.40
2005,08,26,08,34,15.40
2005,08,26,08,35,15.50
2005,08,26,08,36,15.50
2005,08,26,08,37,15.60
2005,08,26,08,38,15.60
2005,08,26,08,39,15.70
2005,08,26,08,40,15.70
2005,08,26,08,41,15.80
2005,08,26,08,42,15.80
2005,08,26,08,43,15.80
2005,08,26,08,44,15.80
2005,08,26,08,45,15.80
2005,08,26,08,46,15.80
2005,08,26,08,47,15.80
2005,08,26,08,48,15.90
2005,08,26,08,49,15.90
2005,08,26,08,50,16.00
2005,08,26,08,51,16.10
2005,08,26,08,52,16.00
2005,08,26,08,53,15.80
2005,08,26,08,54,15.70
2005,08,26,08,55,15.60
2005,08,26,08,56,15.50
2005,08,26,08,57,15.50
2005,08,26,08,58,15.40
2005,08,26,08,59,15.40
2005,08,26,09,00,15.40
2005,08,26,09,01,15.40
2005,08,26,09,02,15.50
2005,08,26,09,03,15.50
2005,08,26,09,04,15.60
2005,08,26,09,05,15.60
2005,08,26,09,06,15.60
2005,08,26,09,07,15.50
2005,08,26,09,08,15.50
2005,08,26,09,09,15.40
2005,08,26,09,10,15.40
2005,08,26,09,11,15.30
2005,08,26,09,12,15.30
2005,08,26,09,13,15.40
2005,08,26,09,14,15.40
2005,08,26,09,15,15.40
2005,08,26,09,16,15.50
2005,08,26,09,17,15.50
2005,08,26,09,18,15.50
2005,08,26,09,19,15.50
2005,08,26,09,20,15.50
2005,08,26,09,21,15.50
2005,08,26,09,22,15.50
2005,08,26,09,23,15.50
2005,08,26,09,24,15.40
2005,08,26,09,25,15.30
2005,08,26,09,26,15.10
2005,08,26,09,27,14.90
2005,08,26,09,28,14.70
2005,08,26,09,29,14.60
2005,08,26,09,30,14.60
2005,08,26,09,31,14.60
2005,08,26,09,32,14.60
2005,08,26,09,33,14.70
2005,08,26,09,34,14.70
2005,08,26,09,35,14.80
2005,08,26,09,36,14.80
2005,08,26,09,37,14.90
2005,08,26,09,38,15.00
2005,08,26,09,39,15.20
2005,08,26,09,40,15.30
2005,08,26,09,41,15.40
2005,08,26,09,42,15.50
2005,08,26,09,43,15.60
2005,08,26,09,44,15.70
2005,08,26,09,45,15.70
2005,08,26,09,46,16.10
2005,08,26,09,47,16.20
2005,08,26,09,48,16.30
2005,08,26,09,49,16.40
2005,08,26,09,50,16.40
2005,08,26,09,51,16.50
2005,08,26,09,52,16.70
2005,08,26,09,53,16.70
2005,08,26,09,54,16.80
2005,08,26,09,55,16.90
2005,08,26,09,56,16.90
2005,08,26,09,57,16.90
2005,08,26,09,58,16.90
2005,08,26,09,59,16.90
2005,08,26,10,00,16.90
2005,08,26,10,01,16.80
2005,08,26,10,02,16.70
2005,08,26,10,03,16.60
2005,08,26,10,04,16.50
2005,08,26,10,05,16.40
2005,08,26,10,06,16.40
2005,08,26,10,07,16.40
2005,08,26,10,08,16.40
2005,08,26,10,09,16.40
2005,08,26,10,10,16.30
2005,08,26,10,11,16.30
2005,08,26,10,12,16.30
2005,08,26,10,13,16.40
2005,08,26,10,14,16.40
2005,08,26,10,15,16.50
2005,08,26,10,16,16.80
2005,08,26,10,17,17.10
2005,08,26,10,18,17.30
2005,08,26,10,19,17.30
2005,08,26,10,20,17.30
2005,08,26,10,21,17.40
2005,08,26,10,22,17.50
2005,08,26,10,23,17.70
2005,08,26,10,24,17.80
2005,08,26,10,25,17.90
2005,08,26,10,26,18.10
2005,08,26,10,27,18.20
2005,08,26,10,28,18.30
2005,08,26,10,29,18.40
2005,08,26,10,30,18.50
2005,08,26,10,31,18.50
2005,08,26,10,32,18.50
2005,08,26,10,33,18.40
2005,08,26,10,34,18.50
2005,08,26,10,35,18.50
2005,08,26,10,36,18.40
2005,08,26,10,37,18.40
2005,08,26,10,38,18.30
2005,08,26,10,39,18.20
2005,08,26,10,40,18.20
2005,08,26,10,41,18.00
2005,08,26,10,42,17.80
2005,08,26,10,43,17.60
2005,08,26,10,44,17.40
2005,08,26,10,45,17.30
2005,08,26,10,46,17.30
2005,08,26,10,47,17.30
2005,08,26,10,48,17.40
2005,08,26,10,49,17.50
2005,08,26,10,50,17.70
2005,08,26,10,51,17.70
2005,08,26,10,52,17.80
2005,08,26,10,53,17.90
2005,08,26,10,54,17.90
2005,08,26,10,55,17.90
2005,08,26,10,56,18.00
2005,08,26,10,57,18.10
2005,08,26,10,58,18.00
2005,08,26,10,59,17.90
2005,08,26,11,00,17.90
2005,08,26,11,01,17.90
2005,08,26,11,02,17.90
2005,08,26,11,03,17.80
2005,08,26,11,04,17.80
2005,08,26,11,05,17.80
2005,08,26,11,06,17.90
2005,08,26,11,07,17.90
2005,08,26,11,08,17.90
2005,08,26,11,09,18.20
2005,08,26,11,10,18.30
2005,08,26,11,11,18.40
2005,08,26,11,12,18.50
2005,08,26,11,13,18.50
2005,08,26,11,14,18.50
2005,08,26,11,15,18.40
2005,08,26,11,16,18.20
2005,08,26,11,17,18.20
2005,08,26,11,18,18.10
2005,08,26,11,19,18.00
2005,08,26,11,20,17.90
2005,08,26,11,21,17.90
2005,08,26,11,22,17.90
2005,08,26,11,23,17.80
2005,08,26,11,24,17.70
2005,08,26,11,25,17.70
2005,08,26,11,26,17.60
2005,08,26,11,27,17.60
2005,08,26,11,28,17.50
2005,08,26,11,29,17.50
2005,08,26,11,30,17.50
2005,08,26,11,31,17.50
2005,08,26,11,32,17.50
2005,08,26,11,33,17.50
2005,08,26,11,34,17.60
2005,08,26,11,35,17.80
2005,08,26,11,36,17.70
2005,08,26,11,37,17.70
2005,08,26,11,38,17.70
2005,08,26,11,39,17.70
2005,08,26,11,40,17.80
2005,08,26,11,41,17.80
2005,08,26,11,42,17.70
2005,08,26,11,43,17.50
2005,08,26,11,44,17.50
2005,08,26,11,45,17.50
2005,08,26,11,46,17.40
2005,08,26,11,47,17.10
2005,08,26,11,48,16.90
2005,08,26,11,49,16.80
2005,08,26,11,50,16.60
2005,08,26,11,51,16.50
2005,08,26,11,52,16.30
2005,08,26,11,53,16.40
2005,08,26,11,54,16.40
2005,08,26,11,55,16.30
2005,08,26,11,56,16.20
2005,08,26,11,57,16.20
2005,08,26,11,58,16.20
2005,08,26,11,59,16.30
2005,08,26,12,00,16.40
2005,08,26,12,01,16.60
2005,08,26,12,02,16.60
2005,08,26,12,03,16.70
2005,08,26,12,04,16.70
2005,08,26,12,05,16.70
2005,08,26,12,06,16.70
2005,08,26,12,07,16.70
2005,08,26,12,08,16.70
2005,08,26,12,09,16.70
2005,08,26,12,10,16.70
2005,08,26,12,11,16.80
2005,08,26,12,12,16.90
2005,08,26,12,13,17.00
2005,08,26,12,14,16.90
2005,08,26,12,15,16.90
2005,08,26,12,16,16.80
2005,08,26,12,17,16.80
2005,08,26,12,18,16.70
2005,08,26,12,19,16.50
2005,08,26,12,20,16.40
2005,08,26,12,21,16.40
2005,08,26,12,22,16.40
2005,08,26,12,23,16.40
2005,08,26,12,24,16.60
2005,08,26,12,25,16.70
2005,08,26,12,26,16.80
2005,08,26,12,27,16.80
2005,08,26,12,28,16.70
2005,08,26,12,29,16.60
2005,08,26,12,30,16.60
2005,08,26,12,31,16.70
2005,08,26,12,32,16.60
2005,08,26,12,33,16.40
2005,08,26,12,34,16.40
2005,08,26,12,35,16.40
2005,08,26,12,36,16.50
2005,08,26,12,37,16.60
2005,08,26,12,38,16.80
2005,08,26,12,39,16.80
2005,08,26,12,40,16.80
2005,08,26,12,41,16.70
2005,08,26,12,42,16.60
2005,08,26,12,43,16.40
2005,08,26,12,44,16.40
2005,08,26,12,45,16.40
2005,08,26,12,46,16.30
2005,08,26,12,47,16.30
2005,08,26,12,48,16.20
2005,08,26,12,49,16.10
2005,08,26,12,50,16.10
2005,08,26,12,51,16.10
2005,08,26,12,52,16.20
2005,08,26,12,53,16.30
2005,08,26,12,54,16.40
2005,08,26,12,55,16.50
2005,08,26,12,56,16.60
2005,08,26,12,57,16.70
2005,08,26,12,58,16.70
2005,08,26,12,59,16.70
2005,08,26,13,00,16.80
2005,08,26,13,01,16.70
2005,08,26,13,02,16.70
2005,08,26,13,03,16.90
2005,08,26,13,04,16.90
2005,08,26,13,05,16.90
2005,08,26,13,06,17.10
2005,08,26,13,07,17.30
2005,08,26,13,08,17.50
2005,08,26,13,09,17.60
2005,08,26,13,10,17.70
2005,08,26,13,11,17.60
2005,08,26,13,12,17.40
2005,08,26,13,13,17.30
2005,08,26,13,14,17.30
2005,08,26,13,15,17.30
2005,08,26,13,16,17.20
2005,08,26,13,17,17.20
2005,08,26,13,18,17.20
2005,08,26,13,19,17.20
2005,08,26,13,20,17.20
2005,08,26,13,21,17.10
2005,08,26,13,22,17.00
2005,08,26,13,23,17.00
2005,08,26,13,24,17.00
2005,08,26,13,25,17.00
2005,08,26,13,26,17.00
2005,08,26,13,27,17.00
2005,08,26,13,28,17.00
2005,08,26,13,29,16.90
2005,08,26,13,30,16.90
2005,08,26,13,31,17.00
2005,08,26,13,32,17.20
2005,08,26,13,33,17.30
2005,08,26,13,34,17.40
2005,08,26,13,35,17.50
2005,08,26,13,36,17.70
2005,08,26,13,37,17.80
2005,08,26,13,38,17.80
2005,08,26,13,39,17.80
2005,08,26,13,40,17.80
2005,08,26,13,41,17.80
2005,08,26,13,42,17.90
2005,08,26,13,43,18.10
2005,08,26,13,44,18.20
2005,08,26,13,45,18.10
2005,08,26,13,46,18.10
2005,08,26,13,47,18.20
2005,08,26,13,48,18.20
2005,08,26,13,49,18.30
2005,08,26,13,50,18.30
2005,08,26,13,51,18.20
2005,08,26,13,52,18.30
2005,08,26,13,53,18.30
2005,08,26,13,54,18.40
2005,08,26,13,55,18.50
2005,08,26,13,56,18.50
2005,08,26,13,57,18.50
2005,08,26,13,58,18.30
2005,08,26,13,59,18.20
2005,08,26,14,00,18.20
2005,08,26,14,01,18.20
2005,08,26,14,02,18.30
2005,08,26,14,03,18.30
2005,08,26,14,04,18.50
2005,08,26,14,05,18.50
2005,08,26,14,06,18.60
2005,08,26,14,07,18.70
2005,08,26,14,08,18.90
2005,08,26,14,09,19.00
2005,08,26,14,10,18.80
2005,08,26,14,11,18.60
2005,08,26,14,12,18.60
2005,08,26,14,13,18.40
2005,08,26,14,14,18.10
2005,08,26,14,15,18.00
2005,08,26,14,16,17.90
2005,08,26,14,17,17.80
2005,08,26,14,18,17.70
2005,08,26,14,19,17.80
2005,08,26,14,20,17.90
2005,08,26,14,21,18.00
2005,08,26,14,22,18.10
2005,08,26,14,23,18.00
2005,08,26,14,24,17.90
2005,08,26,14,25,17.90
2005,08,26,14,26,17.90
2005,08,26,14,27,17.90
2005,08,26,14,28,17.80
2005,08,26,14,29,17.80
2005,08,26,14,30,17.80
2005,08,26,14,31,17.80
2005,08,26,14,32,17.80
2005,08,26,14,33,17.80
2005,08,26,14,34,18.00
2005,08,26,14,35,18.30
2005,08,26,14,36,18.50
2005,08,26,14,37,18.60
2005,08,26,14,38,18.80
2005,08,26,14,39,19.00
2005,08,26,14,40,19.10
2005,08,26,14,41,19.30
2005,08,26,14,42,19.30
2005,08,26,14,43,19.30
2005,08,26,14,44,19.40
2005,08,26,14,45,19.40
2005,08,26,14,46,19.70
2005,08,26,14,47,19.90
2005,08,26,14,48,20.10
2005,08,26,14,49,20.30
2005,08,26,14,50,20.50
2005,08,26,14,51,20.60
2005,08,26,14,52,20.80
2005,08,26,14,53,20.90
2005,08,26,14,54,21.00
2005,08,26,14,55,21.00
2005,08,26,14,56,21.20
2005,08,26,14,57,21.50
2005,08,26,14,58,22.00
2005,08,26,14,59,22.50
2005,08,26,15,00,22.90
2005,08,26,15,01,23.20
2005,08,26,15,02,23.40
2005,08,26,15,03,23.70
2005,08,26,15,04,23.80
2005,08,26,15,05,24.00
2005,08,26,15,06,24.10
2005,08,26,15,07,24.10
2005,08,26,15,08,24.10
2005,08,26,15,09,24.10
2005,08,26,15,10,24.10
2005,08,26,15,11,24.10
2005,08,26,15,12,24.10
2005,08,26,15,13,24.10
2005,08,26,15,14,24.10
2005,08,26,15,15,24.10
2005,08,26,15,16,24.10
2005,08,26,15,17,24.10
2005,08,26,15,18,24.10
2005,08,26,15,19,24.10
2005,08,26,15,20,24.10
2005,08,26,15,21,24.10
2005,08,26,15,22,24.00
2005,08,26,15,23,24.00
2005,08,26,15,24,24.10
2005,08,26,15,25,24.10
2005,08,26,15,26,24.10
2005,08,26,15,27,24.10
2005,08,26,15,28,24.10
2005,08,26,15,29,24.10
2005,08,26,15,30,24.10
2005,08,26,15,31,24.10
2005,08,26,15,32,24.10
2005,08,26,15,33,24.10
2005,08,26,15,34,24.10
2005,08,26,15,35,24.10
2005,08,26,15,36,24.10
2005,08,26,15,37,24.10
2005,08,26,15,38,24.00
2005,08,26,15,39,23.90
2005,08,26,15,40,23.80
2005,08,26,15,41,23.70
2005,08,26,15,42,23.70
2005,08,26,15,43,23.60
2005,08,26,15,44,23.60
2005,08,26,15,45,23.50
2005,08,26,15,46,23.50
2005,08,26,15,47,23.60
2005,08,26,15,48,23.60
2005,08,26,15,49,23.60
2005,08,26,15,50,23.60
2005,08,26,15,51,23.60
2005,08,26,15,52,23.60
2005,08,26,15,53,23.60
2005,08,26,15,54,23.60
2005,08,26,15,55,23.70
2005,08,26,15,56,23.70
2005,08,26,15,57,23.70
2005,08,26,15,58,23.70
2005,08,26,15,59,23.70
2005,08,26,16,00,23.70
2005,08,26,16,01,23.60
2005,08,26,16,02,23.60
2005,08,26,16,03,23.60
2005,08,26,16,04,23.50
2005,08,26,16,05,23.40
2005,08,26,16,06,23.40
2005,08,26,16,07,23.40
2005,08,26,16,08,23.40
2005,08,26,16,09,23.40
2005,08,26,16,10,23.40
2005,08,26,16,11,23.30
2005,08,26,16,12,23.30
2005,08,26,16,13,23.30
2005,08,26,16,14,23.30
2005,08,26,16,15,23.30
2005,08,26,16,16,23.30
2005,08,26,16,17,23.20
2005,08,26,16,18,23.20
2005,08,26,16,19,23.20
2005,08,26,16,20,23.20
2005,08,26,16,21,23.20
2005,08,26,16,22,23.30
2005,08,26,16,23,23.30
2005,08,26,16,24,23.30
2005,08,26,16,25,23.30
2005,08,26,16,26,23.30
2005,08,26,16,27,23.30
2005,08,26,16,28,23.30
2005,08,26,16,29,23.30
2005,08,26,16,30,23.30
2005,08,26,16,31,23.30
2005,08,26,16,32,23.30
2005,08,26,16,33,23.30
2005,08,26,16,34,23.10
2005,08,26,16,35,22.90
2005,08,26,16,36,22.80
2005,08,26,16,37,22.60
2005,08,26,16,38,22.40
2005,08,26,16,39,22.20
2005,08,26,16,40,22.10
2005,08,26,16,41,22.00
2005,08,26,16,42,21.90
2005,08,26,16,43,21.80
2005,08,26,16,44,21.60
2005,08,26,16,45,21.50
2005,08,26,16,46,21.40
2005,08,26,16,47,21.30
2005,08,26,16,48,21.30
2005,08,26,16,49,21.30
2005,08,26,16,50,21.30
2005,08,26,16,51,21.30
2005,08,26,16,52,21.30
2005,08,26,16,53,21.30
2005,08,26,16,54,21.30
2005,08,26,16,55,21.40
2005,08,26,16,56,21.40
2005,08,26,16,57,21.50
2005,08,26,16,58,21.40
2005,08,26,16,59,21.30
2005,08,26,17,00,21.10
2005,08,26,17,01,21.00
2005,08,26,17,02,20.90
2005,08,26,17,03,20.80
2005,08,26,17,04,20.70
2005,08,26,17,05,20.60
2005,08,26,17,06,20.50
2005,08,26,17,07,20.40
2005,08,26,17,08,20.40
2005,08,26,17,09,20.30
2005,08,26,17,10,20.20
2005,08,26,17,11,20.20
2005,08,26,17,12,20.20
2005,08,26,17,13,20.00
2005,08,26,17,14,19.90
2005,08,26,17,15,19.90
2005,08,26,17,16,19.80
2005,08,26,17,17,19.80
2005,08,26,17,18,19.70
2005,08,26,17,19,19.60